Regional Weather Roundup
Issued by NWS

Home | Current Version | Previous Version | Text Only | Print | Product List | Glossary On
Versions: 1 2 3 4 5 6 7 8 9 10 11 12 13 14 15 16 17 18 19 20 21 22 23 24 25 26 27 28 29 30 31 32 33 34 35 36 37 38 39 40 41 42 43 44 45 46 47 48 49 50
000
ASUS43 KTOP 160959
RWRKS

WEATHER ROUNDUP FOR KANSAS
NATIONAL WEATHER SERVICE GOODLAND KS
500 AM CDT TUE SEP 16 2014

NOTE:  "FAIR" INDICATES FEW OR NO CLOUDS BELOW 12,000 FEET WITH NO
SIGNIFICANT WEATHER AND/OR OBSTRUCTIONS TO VISIBILITY.

KSZ001>006-013>018-027>032-041>047-161100-
NORTHWEST KANSAS

CITY           SKY/WX    TMP DP  RH WIND       PRES   REMARKS
GOODLAND       CLOUDY    57  54  89 S10       30.21F
HAYS           CLEAR     48  43  81 E5        30.24F
HILL CITY      CLEAR     44  40  85 CALM      30.24F
RUSSELL        PTCLDY    47  45  93 E5        30.23S
$$

KSZ061>065-074>080-084>089-161100-
SOUTHWEST KANSAS

CITY           SKY/WX    TMP DP  RH WIND       PRES   REMARKS
DODGE CITY     PTCLDY    53  50  89 E5        30.24F
ELKHART          N/A     58  55  90 S2          N/A
GARDEN CITY    CLOUDY    59  56  89 SE6       30.22F
GREAT BEND     MOCLDY    54  48  82 E6        30.24S
LIBERAL        CLOUDY    61  54  77 CALM      30.25F
$$

KSZ066>073-081>083-090>101-161100-
SOUTHEAST KANSAS

CITY           SKY/WX    TMP DP  RH WIND       PRES   REMARKS
CHANUTE        CLOUDY    59  50  72 NE7       30.21S
COFFEYVILLE    CLOUDY    62  58  86 NE13      30.18S
HUTCHINSON     CLOUDY    57  51  80 NE5       30.23S
NEWTON         CLOUDY    55  46  71 E7        30.24S
PARSONS        CLOUDY    61  54  77 NE7       30.20F
WICHITA INTL   CLOUDY    61  50  67 NE9       30.20F
WICHITA JABRA  CLOUDY    58  50  75 NE9       30.21S
WINFIELD       CLOUDY    62  55  77 NE10      30.19F
$$

KSZ007>012-019>026-033>040-048>060-102>105-161100-
NORTHEAST KANSAS

CITY           SKY/WX    TMP DP  RH WIND       PRES   REMARKS
CONCORDIA      CLEAR     44  44 100 SE3       30.25F
EMPORIA        CLEAR     50  49  96 NE6       30.23F
LAWRENCE       CLEAR     45  43  93 CALM      30.25F
MANHATTAN      CLEAR     48  46  93 N3        30.25F
OLATHE IND     CLEAR     48  47  96 N5        30.24F
OLATHE EXE     CLEAR     49  48  97 N6        30.23F
SALINA         CLEAR     52  47  83 E7        30.25S
TOPEKA BILLARD CLEAR     48  47  96 CALM      30.26S
TOPEKA FORBES  CLEAR     47  45  93 CALM      30.24F
$$


USA.gov is the U.S. government's official web portal to all federal, state and local government web resources and services.